Meteo Giornale » Osservazioni meteo Italia » Rimini

ore: 09:20 - Osservazioni Meteo Rimini
Lat. 44° 2' N Lon. 12° 37' E Alt. 12 metri s.l.m.

sereno Europe/Rome

26 °C

Sereno

Temp. 24 Ore

18 °C

28 °C

Nord-Ovest

13 Km/h

Dew point 14 °C

Umidità 47 %

Visibilità  10 Km

Il sole sorge alle ore 06:14

Il sole tramonta alle ore 20:12

Data e Ora Cielo e Fenomeni T °C DP °C Um. % Pres. hPa Vis. km Vento km/h
Oggi h: 09:20 sereno Sereno 26 14 47 1014 10 NO 13
Oggi h: 08:50 sereno Sereno 24 15 57 1014 10 O 7.4
Oggi h: 08:20 sereno Sereno 22 16 68 1014 10 SO 7.4
Oggi h: 07:50 sereno Sereno 21 15 68 1014 10 N 5.5
Oggi h: 07:20 sereno Sereno 20 14 68 1014 10 N 5.5
Oggi h: 06:50 sereno Sereno 19 14 72 1014 10 SO 9.3
Oggi h: 06:20 sereno Sereno 18 14 77 1014 10 S/SO 7.4
Oggi h: 05:50 sereno Sereno 19 14 72 1014 10 SO 9.3
Oggi h: 05:20 sereno Sereno 18 15 82 1014 10 N 1.8
Oggi h: 04:50 sereno Sereno 19 15 77 1014 10 N 5.5
Oggi h: 04:20 sereno Sereno 19 15 77 1014 10 N 5.5
Oggi h: 03:50 sereno Sereno 19 15 77 1014 10 SO 7.4
Oggi h: 03:20 sereno Sereno 19 16 82 1014 10 N 3.7
Oggi h: 02:20 sereno Sereno 20 16 77 1014 10 N 3.7
Oggi h: 01:50 sereno Sereno 20 16 77 1014 10 N 3.7
Oggi h: 01:20 sereno Sereno 20 16 77 1014 10 N 3.7
Oggi h: 00:50 sereno Sereno 20 16 77 1014 10 N 3.7
Oggi h: 00:20 sereno Sereno 21 16 73 1014 10 N 5.5
Ieri h: 23:50 sereno Sereno 20 16 77 1014 10 N 1.8
Ieri h: 23:20 sereno Sereno 21 16 73 1014 10 S 7.4
Ieri h: 22:50 sereno Sereno 21 17 77 1014 10 S 7.4
Ieri h: 22:20 sereno Sereno 22 17 73 1014 10 S 9.3
Ieri h: 21:50 sereno Sereno 23 17 68 1014 10 N 3.7
Ieri h: 21:20 sereno Sereno 23 18 73 1014 10 N 1.8
Ieri h: 20:50 sereno Sereno 23 17 68 1014 10 N 0
Ieri h: 20:20 sereno Sereno 24 18 69 1014 10 N 3.7
Ieri h: 19:50 sereno Sereno 26 17 57 1014 10 N 5.5
Ieri h: 19:20 sereno Sereno 26 17 57 1014 10 N 7.4
Ieri h: 18:50 sereno Sereno 27 17 54 1014 10 N/NO 11.1
Ieri h: 18:20 sereno Sereno 27 17 54 1014 10 N 11.1
Ieri h: 17:50 sereno Sereno 27 16 50 1014 10 N 13
Ieri h: 17:20 sereno Sereno 28 17 51 1014 10 N 11.1
Ieri h: 16:50 sereno Sereno 27 16 50 1014 10 N 11.1
Ieri h: 16:20 poco_nuvoloso Poco Nuvoloso 28 16 48 1014 10 N 13
Ieri h: 15:50 poco_nuvoloso Poco Nuvoloso 27 16 50 1014 10 N 13
Ieri h: 15:20 poco_nuvoloso Poco Nuvoloso 28 16 48 1015 10 N/NO 14.8
Ieri h: 14:50 poco_nuvoloso Poco Nuvoloso 28 17 51 1015 10 N 13
Ieri h: 14:20 poco_nuvoloso Poco Nuvoloso 28 17 51 1015 10 N 14.8
Ieri h: 13:50 poco_nuvoloso Poco Nuvoloso 28 17 51 1015 10 N 14.8
Ieri h: 13:20 poco_nuvoloso Poco Nuvoloso 28 17 51 1015 10 N 14.8
Ieri h: 12:50 poco_nuvoloso Poco Nuvoloso 27 19 61 1015 10 N/NO 14.8
Ieri h: 12:20 poco_nuvoloso Poco Nuvoloso 27 18 57 1015 10 N/NO 14.8
Ieri h: 11:50 poco_nuvoloso Poco Nuvoloso 27 17 54 1015 10 N/NO 13
Ieri h: 11:20 poco_nuvoloso Poco Nuvoloso 27 18 57 1016 10 N/NO 11.1
Ieri h: 10:50 poco_nuvoloso Poco Nuvoloso 27 17 54 1016 10 NO 9.3
Ieri h: 10:20 poco_nuvoloso Poco Nuvoloso 26 18 61 1016 10 O/NO 13
Ieri h: 09:50 poco_nuvoloso Poco Nuvoloso 25 18 65 1016 10 O 16.7